Weather in Palm Beach

United States     26°41′34″N   80°02′11″W
temp.,
°C
wind,
m/s
gust,
m/s
humid.,
%
clouds,
%
prec.,
mm/h
press.,
hPa
HPBL,
m
23 may, mon
mon2323:00+27se67795 0.0 1022832
02:00+26ese56745 0.0 1020849
05:00+26ese457612 0.0 1020685
08:00+27ese677176 0.1 1020946
11:00+28ese677019 0.0 10201103
14:00+28ese66645 0.2 10191164
17:00+28ese55665 0.0 10181079
20:00+27ese56745 0.3 1018801
24 may, tue
tue2423:00+26ese56715 0.0 1019885
02:00+26ese67733 0.0 1017861
05:00+26se677465 0.0 1016876
08:00+26ese6765100 0.0 10181026
11:00+27ese6760100 0.0 10191253
14:00+28ese6764100 0.0 10181065
17:00+28ese666287 0.2 10171044
20:00+26ese676765 0.2 10171018
25 may, wed
wed2523:00+26ese7964100 0.0 10181051
02:00+26ese7868100 0.0 10181157
05:00+26ese686736 0.0 10171097
08:00+26ese686779 0.1 10181150
11:00+28ese8968100 0.6 10191212
14:00+28ese7865100 0.8 10181185
17:00+28ese6768100 0.1 10181128
20:00+26ese5775100 0.9 1018879
26 may, thu
thu2623:00+26ese7971100 0.0 1019966
02:00+26ese7869100 0.0 10181080
05:00+26ese6769100 0.0 10181090
08:00+26ese7867100 0.1 10191370
11:00+28ese6762100 0.0 10191307
14:00+27ese6769100 0.1 10191052
17:00+27ese6772100 0.1 10171064
20:00+27ese5775100 0.7 1017862
27 may, fri
fri2723:00+27se6777100 0.4 1018815
02:00+26se677849 0.4 1016729
05:00+26se467784 0.1 1016606
08:00+27se567598 0.7 1017763
11:00+28se666796 0.1 10171087
14:00+28se77694 0.4 1016734
17:00+27se77756 0.9 1014540
20:00+26sse68761 2.8 1014476